LVMEP SCEL-SAME

Flight info

Callsign LVMEP
Flight time 0h 51m
Altitude 25000
Route ALBAL7C ALBAL UT652 ESITO ESITO1Q
Aircraft BE60/L-SDFGRY/C

Departure

Time 2026-04-23 19:02
Airport Comodoro Arturo Merino Benítez International Airport (SCEL)

Arrival

Time 2026-04-23 19:53
Airport Governor Francisco Gabrielli International Airport (SAME)
Time Latitude Longitude Altitude Speed Heading
2026-04-23 18:44 -33.39220 -70.79204 1559 ft 0 kts 360°
2026-04-23 18:52 -33.39208 -70.79188 1558 ft 6 kts 84°
2026-04-23 18:52 -33.39238 -70.79145 1559 ft 10 kts 174°
2026-04-23 18:53 -33.39279 -70.79143 1559 ft 0 kts 179°
2026-04-23 18:53 -33.39280 -70.79143 1559 ft 1 kts 179°
2026-04-23 18:53 -33.39305 -70.79144 1559 ft 6 kts 189°
2026-04-23 18:53 -33.39317 -70.79214 1559 ft 12 kts 266°
2026-04-23 18:54 -33.39321 -70.79344 1559 ft 19 kts 268°
2026-04-23 18:54 -33.39328 -70.79518 1559 ft 23 kts 267°
2026-04-23 18:54 -33.39335 -70.79717 1559 ft 25 kts 267°
2026-04-23 18:54 -33.39346 -70.79933 1559 ft 27 kts 269°
2026-04-23 18:55 -33.39215 -70.80063 1560 ft 29 kts 355°
2026-04-23 18:55 -33.39010 -70.80075 1561 ft 31 kts 357°
2026-04-23 18:55 -33.38785 -70.80087 1561 ft 34 kts 359°
2026-04-23 18:55 -33.38564 -70.80099 1561 ft 30 kts 356°
2026-04-23 18:56 -33.38417 -70.80107 1561 ft 32 kts 358°
2026-04-23 18:56 -33.38207 -70.80118 1560 ft 23 kts 358°
2026-04-23 18:56 -33.38031 -70.80132 1560 ft 27 kts 357°
2026-04-23 18:56 -33.37829 -70.80138 1560 ft 30 kts 356°
2026-04-23 18:57 -33.37624 -70.80148 1561 ft 18 kts 357°
2026-04-23 18:57 -33.37479 -70.80154 1561 ft 23 kts 357°
2026-04-23 18:57 -33.37307 -70.80164 1572 ft 26 kts 357°
2026-04-23 18:57 -33.37141 -70.80185 1573 ft 21 kts 329°
2026-04-23 18:58 -33.37105 -70.80246 1573 ft 0 kts 281°
2026-04-23 19:00 -33.37103 -70.80259 1576 ft 7 kts 277°
2026-04-23 19:00 -33.37115 -70.80331 1578 ft 9 kts 239°
2026-04-23 19:01 -33.37178 -70.80376 1577 ft 13 kts 183°
2026-04-23 19:01 -33.37291 -70.80371 1578 ft 31 kts 177°
2026-04-23 19:01 -33.37759 -70.80345 1575 ft 99 kts 177°
2026-04-23 19:01 -33.38570 -70.80284 1675 ft 131 kts 177°
2026-04-23 19:02 -33.39200 -70.80254 1868 ft 142 kts 179°
2026-04-23 19:02 -33.40588 -70.80195 2364 ft 153 kts 178°
2026-04-23 19:02 -33.41645 -70.80134 2823 ft 154 kts 179°
2026-04-23 19:02 -33.42699 -70.80076 3247 ft 149 kts 178°
2026-04-23 19:03 -33.43729 -70.80016 3669 ft 147 kts 178°
2026-04-23 19:03 -33.44757 -70.79966 4084 ft 148 kts 177°
2026-04-23 19:03 -33.45789 -70.79910 4479 ft 149 kts 177°
2026-04-23 19:03 -33.46828 -70.79853 4852 ft 150 kts 177°
2026-04-23 19:04 -33.47882 -70.79797 5215 ft 152 kts 177°
2026-04-23 19:04 -33.48944 -70.79741 5594 ft 154 kts 178°
2026-04-23 19:04 -33.50019 -70.79682 5979 ft 156 kts 178°
2026-04-23 19:04 -33.51112 -70.79623 6395 ft 158 kts 179°
2026-04-23 19:05 -33.52216 -70.79561 6790 ft 160 kts 178°
2026-04-23 19:05 -33.53333 -70.79488 7179 ft 162 kts 175°
2026-04-23 19:05 -33.54457 -70.79337 7565 ft 163 kts 176°
2026-04-23 19:05 -33.55591 -70.79212 7970 ft 164 kts 176°
2026-04-23 19:06 -33.56734 -70.79078 8385 ft 166 kts 176°
2026-04-23 19:06 -33.57873 -70.78939 8792 ft 167 kts 176°
2026-04-23 19:06 -33.59031 -70.78799 9179 ft 168 kts 176°
2026-04-23 19:06 -33.60197 -70.78660 9624 ft 169 kts 176°
2026-04-23 19:07 -33.61369 -70.78518 10032 ft 170 kts 176°
2026-04-23 19:07 -33.62547 -70.78378 10398 ft 171 kts 176°
2026-04-23 19:07 -33.63732 -70.78231 10773 ft 172 kts 176°
2026-04-23 19:07 -33.64924 -70.78085 11141 ft 172 kts 176°
2026-04-23 19:08 -33.66121 -70.77939 11522 ft 173 kts 176°
2026-04-23 19:08 -33.67324 -70.77796 11894 ft 174 kts 176°
2026-04-23 19:08 -33.68520 -70.77652 12279 ft 175 kts 176°
2026-04-23 19:08 -33.69738 -70.77504 12692 ft 176 kts 176°
2026-04-23 19:09 -33.70966 -70.77354 13091 ft 177 kts 177°
2026-04-23 19:09 -33.72193 -70.77207 13516 ft 178 kts 177°
2026-04-23 19:09 -33.73429 -70.77056 13939 ft 179 kts 176°
2026-04-23 19:09 -33.74670 -70.76905 14295 ft 179 kts 177°
2026-04-23 19:10 -33.75915 -70.76754 14659 ft 180 kts 177°
2026-04-23 19:10 -33.77148 -70.76605 15021 ft 180 kts 178°
2026-04-23 19:10 -33.78394 -70.76453 15397 ft 180 kts 178°
2026-04-23 19:10 -33.79638 -70.76302 15792 ft 180 kts 178°
2026-04-23 19:11 -33.80885 -70.76149 16183 ft 180 kts 178°
2026-04-23 19:11 -33.82095 -70.75749 16561 ft 184 kts 153°
2026-04-23 19:11 -33.83066 -70.74739 16969 ft 186 kts 126°
2026-04-23 19:11 -33.83660 -70.73361 17351 ft 186 kts 113°
2026-04-23 19:12 -33.84015 -70.72422 17612 ft 186 kts 114°
2026-04-23 19:12 -33.84749 -70.70523 18129 ft 189 kts 115°
2026-04-23 19:12 -33.85308 -70.69067 18460 ft 193 kts 115°
2026-04-23 19:12 -33.85874 -70.67587 18770 ft 196 kts 115°
2026-04-23 19:13 -33.86253 -70.66597 18984 ft 197 kts 115°
2026-04-23 19:13 -33.87025 -70.64576 19412 ft 200 kts 115°
2026-04-23 19:13 -33.87413 -70.63564 19612 ft 203 kts 115°
2026-04-23 19:13 -33.88012 -70.62000 19900 ft 208 kts 115°
2026-04-23 19:14 -33.88620 -70.60407 20233 ft 211 kts 116°
2026-04-23 19:14 -33.89245 -70.58770 20495 ft 218 kts 116°
2026-04-23 19:14 -33.89883 -70.57097 20759 ft 222 kts 116°
2026-04-23 19:14 -33.90522 -70.55420 21043 ft 224 kts 116°
2026-04-23 19:15 -33.91176 -70.53707 21314 ft 226 kts 116°
2026-04-23 19:15 -33.91833 -70.51982 21603 ft 227 kts 116°
2026-04-23 19:15 -33.92491 -70.50253 21897 ft 227 kts 116°
2026-04-23 19:15 -33.93149 -70.48523 22208 ft 227 kts 116°
2026-04-23 19:16 -33.93808 -70.46796 22461 ft 227 kts 116°
2026-04-23 19:16 -33.94463 -70.45070 22733 ft 226 kts 116°
2026-04-23 19:16 -33.95118 -70.43350 23010 ft 226 kts 116°
2026-04-23 19:17 -33.96418 -70.39923 23497 ft 224 kts 116°
2026-04-23 19:17 -33.97066 -70.38214 23719 ft 224 kts 117°
2026-04-23 19:17 -33.97719 -70.36496 23854 ft 227 kts 117°
2026-04-23 19:17 -33.98375 -70.34764 24000 ft 228 kts 117°
2026-04-23 19:18 -33.99037 -70.33018 24138 ft 229 kts 117°
2026-04-23 19:18 -33.99700 -70.31264 24268 ft 231 kts 117°
2026-04-23 19:18 -34.00369 -70.29495 24376 ft 233 kts 117°
2026-04-23 19:18 -34.01043 -70.27716 24522 ft 234 kts 117°
2026-04-23 19:19 -34.02384 -70.24170 24746 ft 234 kts 117°
2026-04-23 19:19 -34.03060 -70.22376 24922 ft 234 kts 117°
2026-04-23 19:20 -34.04408 -70.18804 25160 ft 234 kts 116°
2026-04-23 19:20 -34.05092 -70.16994 25184 ft 241 kts 116°
2026-04-23 19:20 -34.05790 -70.15139 25187 ft 245 kts 116°
2026-04-23 19:20 -34.06490 -70.13276 25188 ft 243 kts 116°
2026-04-23 19:21 -34.07186 -70.11431 25199 ft 241 kts 117°
2026-04-23 19:21 -34.08594 -70.07688 25197 ft 250 kts 116°
2026-04-23 19:21 -34.09316 -70.05764 25199 ft 253 kts 116°
2026-04-23 19:22 -34.10048 -70.03818 25205 ft 259 kts 116°
2026-04-23 19:22 -34.10807 -70.01796 25207 ft 268 kts 116°
2026-04-23 19:22 -34.12370 -69.97624 25200 ft 276 kts 116°
2026-04-23 19:23 -34.13166 -69.95498 25197 ft 277 kts 116°
2026-04-23 19:23 -34.13955 -69.93392 25203 ft 280 kts 116°
2026-04-23 19:23 -34.14756 -69.91252 25190 ft 280 kts 116°
2026-04-23 19:24 -34.16373 -69.86924 25202 ft 286 kts 116°
2026-04-23 19:24 -34.17191 -69.84723 25194 ft 288 kts 114°
2026-04-23 19:24 -34.17680 -69.79958 25190 ft 287 kts 79°
2026-04-23 19:25 -34.16482 -69.75406 25185 ft 284 kts 67°
2026-04-23 19:25 -34.15159 -69.70892 25178 ft 286 kts 67°
2026-04-23 19:26 -34.13821 -69.66374 25130 ft 285 kts 67°
2026-04-23 19:26 -34.13147 -69.64099 24935 ft 291 kts 67°
2026-04-23 19:27 -34.11772 -69.59460 24418 ft 299 kts 67°
2026-04-23 19:27 -34.09632 -69.52249 23765 ft 308 kts 67°
2026-04-23 19:28 -34.08174 -69.47347 23230 ft 312 kts 67°
2026-04-23 19:28 -34.06696 -69.42391 22711 ft 316 kts 67°
2026-04-23 19:29 -34.05964 -69.39932 22465 ft 315 kts 67°
2026-04-23 19:29 -34.04473 -69.34944 21701 ft 316 kts 67°
2026-04-23 19:30 -34.02976 -69.29942 20995 ft 318 kts 67°
2026-04-23 19:30 -34.02222 -69.27429 20582 ft 319 kts 67°
2026-04-23 19:30 -34.00714 -69.22400 19953 ft 318 kts 67°
2026-04-23 19:31 -33.99961 -69.19895 19637 ft 317 kts 67°
2026-04-23 19:31 -33.99211 -69.17397 19334 ft 316 kts 67°
2026-04-23 19:31 -33.98462 -69.14907 19029 ft 315 kts 67°
2026-04-23 19:31 -33.97717 -69.12433 18738 ft 313 kts 67°
2026-04-23 19:32 -33.96979 -69.09985 18479 ft 308 kts 67°
2026-04-23 19:32 -33.96256 -69.07586 18223 ft 302 kts 67°
2026-04-23 19:32 -33.95544 -69.05228 17960 ft 297 kts 67°
2026-04-23 19:32 -33.94840 -69.02899 17689 ft 293 kts 68°
2026-04-23 19:33 -33.94146 -69.00606 17423 ft 290 kts 68°
2026-04-23 19:33 -33.93457 -68.98330 17130 ft 289 kts 68°
2026-04-23 19:33 -33.92082 -68.93796 16514 ft 286 kts 68°
2026-04-23 19:34 -33.91389 -68.91557 16222 ft 284 kts 65°
2026-04-23 19:34 -33.90369 -68.89563 15968 ft 277 kts 47°
2026-04-23 19:34 -33.87379 -68.86925 15497 ft 265 kts 18°
2026-04-23 19:35 -33.85621 -68.86369 15259 ft 259 kts
2026-04-23 19:35 -33.83836 -68.86205 15025 ft 256 kts
2026-04-23 19:35 -33.82057 -68.86038 14782 ft 255 kts
2026-04-23 19:35 -33.80294 -68.85869 14558 ft 254 kts
2026-04-23 19:36 -33.78534 -68.85709 14328 ft 252 kts
2026-04-23 19:36 -33.76787 -68.85553 14099 ft 251 kts
2026-04-23 19:36 -33.75064 -68.85396 13876 ft 250 kts
2026-04-23 19:36 -33.73328 -68.85239 13626 ft 249 kts
2026-04-23 19:37 -33.71591 -68.85081 13377 ft 249 kts
2026-04-23 19:37 -33.69866 -68.84925 13132 ft 248 kts
2026-04-23 19:37 -33.68149 -68.84770 12893 ft 247 kts
2026-04-23 19:37 -33.66433 -68.84614 12651 ft 247 kts
2026-04-23 19:38 -33.64725 -68.84456 12418 ft 246 kts
2026-04-23 19:38 -33.63016 -68.84304 12182 ft 246 kts
2026-04-23 19:38 -33.61306 -68.84149 11946 ft 245 kts
2026-04-23 19:38 -33.59603 -68.83996 11709 ft 245 kts
2026-04-23 19:39 -33.57908 -68.83841 11472 ft 244 kts
2026-04-23 19:39 -33.56216 -68.83689 11244 ft 244 kts
2026-04-23 19:39 -33.54549 -68.83537 11019 ft 243 kts
2026-04-23 19:39 -33.52862 -68.83383 10790 ft 243 kts
2026-04-23 19:40 -33.51181 -68.83230 10578 ft 242 kts
2026-04-23 19:40 -33.49504 -68.83077 10366 ft 241 kts
2026-04-23 19:40 -33.47834 -68.82926 10152 ft 240 kts
2026-04-23 19:40 -33.46167 -68.82776 9955 ft 240 kts
2026-04-23 19:41 -33.44509 -68.82625 9706 ft 239 kts
2026-04-23 19:41 -33.42853 -68.82474 9462 ft 238 kts
2026-04-23 19:41 -33.41212 -68.82324 9238 ft 236 kts
2026-04-23 19:41 -33.39583 -68.82178 9003 ft 234 kts
2026-04-23 19:42 -33.37968 -68.82032 8782 ft 232 kts
2026-04-23 19:42 -33.36365 -68.81886 8554 ft 230 kts
2026-04-23 19:42 -33.34775 -68.81743 8330 ft 228 kts
2026-04-23 19:42 -33.33195 -68.81599 8115 ft 227 kts
2026-04-23 19:43 -33.31624 -68.81456 7897 ft 225 kts
2026-04-23 19:43 -33.30067 -68.81316 7679 ft 224 kts
2026-04-23 19:43 -33.28519 -68.81176 7472 ft 223 kts
2026-04-23 19:43 -33.26977 -68.81036 7255 ft 221 kts
2026-04-23 19:44 -33.25445 -68.80898 7050 ft 220 kts
2026-04-23 19:44 -33.23941 -68.80762 6847 ft 218 kts
2026-04-23 19:44 -33.22428 -68.80625 6652 ft 217 kts
2026-04-23 19:44 -33.20928 -68.80490 6426 ft 213 kts
2026-04-23 19:45 -33.19465 -68.80359 6219 ft 208 kts
2026-04-23 19:45 -33.18031 -68.80230 6015 ft 205 kts
2026-04-23 19:45 -33.16633 -68.80101 5968 ft 196 kts
2026-04-23 19:45 -33.15301 -68.79983 5960 ft 189 kts
2026-04-23 19:46 -33.14009 -68.79868 5960 ft 184 kts
2026-04-23 19:46 -33.12754 -68.79753 5966 ft 180 kts
2026-04-23 19:46 -33.11510 -68.79720 5969 ft 177 kts
2026-04-23 19:46 -33.10283 -68.79701 5920 ft 178 kts
2026-04-23 19:47 -33.09452 -68.79686 5828 ft 182 kts
2026-04-23 19:47 -33.07742 -68.79680 5727 ft 185 kts
2026-04-23 19:47 -33.06453 -68.79660 5657 ft 185 kts
2026-04-23 19:47 -33.05180 -68.79614 5587 ft 184 kts
2026-04-23 19:48 -33.03902 -68.79599 5514 ft 183 kts
2026-04-23 19:48 -33.02629 -68.79579 5493 ft 181 kts
2026-04-23 19:48 -33.01379 -68.79560 5489 ft 178 kts
2026-04-23 19:48 -33.00135 -68.79543 5343 ft 181 kts
2026-04-23 19:49 -32.98860 -68.79520 5117 ft 185 kts
2026-04-23 19:49 -32.97556 -68.79510 4870 ft 189 kts
2026-04-23 19:49 -32.96233 -68.79472 4612 ft 190 kts
2026-04-23 19:49 -32.94907 -68.79467 4363 ft 190 kts
2026-04-23 19:50 -32.93605 -68.79442 4124 ft 184 kts
2026-04-23 19:50 -32.92335 -68.79424 3888 ft 180 kts
2026-04-23 19:50 -32.91188 -68.79411 3674 ft 149 kts
2026-04-23 19:50 -32.90200 -68.79396 3483 ft 136 kts
2026-04-23 19:51 -32.89329 -68.79381 3320 ft 117 kts
2026-04-23 19:51 -32.88532 -68.79369 3169 ft 114 kts
2026-04-23 19:51 -32.87750 -68.79359 3018 ft 114 kts
2026-04-23 19:51 -32.86964 -68.79347 2872 ft 113 kts
2026-04-23 19:52 -32.86433 -68.79344 2777 ft 112 kts 359°
2026-04-23 19:52 -32.85403 -68.79342 2575 ft 111 kts
2026-04-23 19:52 -32.84629 -68.79327 2434 ft 111 kts
2026-04-23 19:52 -32.83921 -68.79307 2359 ft 84 kts
2026-04-23 19:53 -32.83427 -68.79293 2353 ft 61 kts
2026-04-23 19:53 -32.83056 -68.79285 2354 ft 46 kts
2026-04-23 19:53 -32.82767 -68.79283 2361 ft 38 kts
2026-04-23 19:53 -32.82555 -68.79291 2356 ft 19 kts 312°
2026-04-23 19:54 -32.82567 -68.79404 2355 ft 13 kts 224°
2026-04-23 19:54 -32.82642 -68.79496 2356 ft 18 kts 233°
2026-04-23 19:54 -32.82675 -68.79650 2358 ft 22 kts 272°
2026-04-23 19:54 -32.82766 -68.79700 2354 ft 13 kts 123°
2026-04-23 19:55 -32.82779 -68.79650 2356 ft 6 kts 260°
2026-04-23 19:55 -32.82779 -68.79653 2356 ft 0 kts 276°